Other Public Products
Issued by NWS Grand Forks, ND

Home | Current Version | Previous Version | Text Only | Print | Product List | Glossary Off
Versions: 1 2 3 4 5 6 7 8 9 10 11 12 13 14 15 16 17 18 19 20 21 22 23 24 25 26 27 28 29 30 31 32 33 34 35 36 37 38 39 40 41 42 43 44 45 46 47 48 49 50

000
FPUS83 KFGF 271110
OPUFGF
PRAIRIE TO PINES WEATHER ROUNDUP
NATIONAL WEATHER SERVICE EASTERN NORTH DAKOTA/GRAND FORKS ND
600 AM CDT TUE JUN 27 2017

 **SATELLITE DATA USED TO AUGMENT SKY COVER AT AUTOMATED STATIONS**
 *****  WEATHER ACROSS EASTERN NORTH DAKOTA  *****

CITY           SKY/WX    TMP DP  RH WIND       PRES   REMARKS
GRAND FORKS    CLOUDY    51  45  79 S7        29.94S
GRAND FORKS AF FAIR      53  43  69 S7        29.93F
GRAND CITY NWS NOT AVBL
BUXTON         NOT AVBL
DEVILS LAKE    FAIR      58  42  55 S18G24    29.90F
FARGO          FAIR      52  42  69 S9        29.99S
WAHPETON ARPT  FAIR      46  39  76 S7        30.03R
$$

 *****  WEATHER ACROSS CENTRAL AND WESTERN NORTH DAKOTA  *****

CITY           SKY/WX    TMP DP  RH WIND       PRES   REMARKS
JAMESTOWN      FAIR      53  39  59 S10       29.95F
BISMARCK       FAIR      57  40  52 SE13      29.86F
MINOT          FAIR      63  37  38 S21G31    29.78F
MINOT AFB      FAIR      61  38  41 S15G24    29.77F
GARRISON         N/A     60  39  45 S17G25    29.81F
WILLISTON      FAIR      67  42  40 S10       29.70F
DICKINSON      FAIR      57  35  43 S20       29.76S
HETTINGER      FAIR      57  39  51 SE15      29.80F
$$

 *****  OTHER OBSERVATIONS NORTHEAST NORTH DAKOTA  *****

CITY           SKY/WX    TMP DP  RH WIND       PRES   REMARKS
WALHALLA       NOT AVBL
LANGDON        FAIR      54  45  71 S13       29.89F
CAVALIER       FAIR      54  43  66 S9        29.89F
GRAFTON        FAIR      48  45  87 S8        29.93F
CANDO          NOT AVBL
FORT TOTTEN      N/A     52  41  65 S8        29.95S
ROLLA            N/A     52  41  66 S8        29.86F
RUGBY          NOT AVBL
 ***** THE ABOVE OBSERVATIONS ARE NON NWS ARE NOT QUALITY
        CONTROLLED AND MAY MIS-REPORT RAIN FOR SNOW...
$$

 *****  OTHER OBSERVATIONS SOUTHEAST NORTH DAKOTA *****

CITY           SKY/WX    TMP DP  RH WIND       PRES   REMARKS
COOPERSTOWN    FAIR      52  43  71 S9        29.96S
VALLEY CITY    FAIR      50  43  76 S14       29.99S
OAKES          NOT AVBL
GWINNER        CLOUDY    50  45  81 S8        30.00S
SHEYENNE NWR     N/A     45  43  92 S7        29.95S
BUFFALO        NOT AVBL
WYNDMERE       NOT AVBL
 ***** THE ABOVE OBSERVATIONS ARE NON NWS ARE NOT QUALITY
       CONTROLLED AND MAY MIS-REPORT RAIN FOR SNOW...
$$

  *****  WEATHER ACROSS NORTHERN MINNESOTA  *****

CITY           SKY/WX    TMP DP  RH WIND       PRES   REMARKS
FLAG ISLAND    FAIR      55  48  76 SW6       29.94R
WARROAD        FAIR      48  43  81 SW6       29.96S
ROSEAU         FAIR      46  43  87 S8        29.95F
HALLOCK        FAIR      45  43  93 S7        29.92S
THF RVR FALLS  FAIR      50  42  74 S8        29.98F
HALSTAD        NOT AVBL
FOSSTON        FAIR      45  39  81 S7        30.01S
BAUDETTE       FAIR      47  42  83 CALM      29.97S
WASKISH        FAIR      46  43  87 S3        30.00S
CROOKSTON      FAIR      46  43  87 S7        29.98S
$$
  *****  WEATHER ACROSS CENTRAL AND WEST MINNESOTA  *****

CITY           SKY/WX    TMP DP  RH WIND       PRES   REMARKS
BEMIDJI        FAIR      47  41  78 S3        30.02S
PARK RAPIDS    FAIR      48  41  76 S3        30.03F
WADENA         FAIR      45  39  81 CALM      30.04S
DETROIT LAKES  FAIR      55  43  62 SW8       30.04R
MOORHEAD       FAIR      48  43  81 S8        30.01S
FERGUS FALLS   FAIR      52  43  71 S9        30.02S
ELBOW LAKE     FAIR      47  43  85 S8        30.05S
MORRIS MN      FAIR      48  43  81 S5        30.05S
STAPLES        FAIR      45  41  87 S3        30.05S
WHEATON        FAIR      54  41  62 S8        30.05S
$$
  *****  WEATHER ELSEWHERE ACROSS MINNESOTA  *****

CITY           SKY/WX    TMP DP  RH WIND       PRES   REMARKS
DULUTH         FAIR      47  43  86 CALM      30.04R
INTRNTL FALLS  FAIR      43  41  93 CALM      29.98F
ELY            FAIR      46  45  93 CALM      30.01F
CLOQUET        FAIR      48  41  76 W6        30.04S
BRAINERD       FAIR      41  40  96 S3        30.06S
HIBBING        FAIR      38  38 100 CALM      30.03S
ALEXANDRIA     FAIR      50  42  74 S7        30.07S
SAINT CLOUD    FAIR      42  41  96 CALM      30.07F
MINNEAPOLIS    FAIR      55  45  68 S3        30.09S
$$

  *****  WEATHER ACROSS SOUTH DAKOTA  *****

CITY           SKY/WX    TMP DP  RH WIND       PRES   REMARKS
SIOUX FALLS    FAIR      54  43  66 S12       30.08F
BROOKINGS      FAIR      48  41  76 S9        30.08S
WATERTOWN      FAIR      48  41  76 S7        30.04F
HURON          FAIR      50  41  71 S10       30.03S
SISSETON         N/A     49  41  74 S9        30.02S
ABERDEEN       FAIR      44  41  89 SE8       30.00F
MITCHELL       FAIR      50  43  77 S9        30.04F
PIERRE         FAIR      54  42  64 SE12      29.92F
MOBRIDGE       FAIR      60  42  51 SE21G26   29.88F
RAPID CITY     FAIR      61  45  55 S16       29.84F
$$

  *****  SOME WEATHER IN NEARBY STATES *****

CITY           SKY/WX    TMP DP  RH WIND       PRES   REMARKS
GLASGOW MT     FAIR      63  39  41 SE8       29.61S
GREAT FALLS MT FAIR      65  50  58 SW14      29.76R
CHEYENNE WY    CLOUDY    55  54  96 S7        30.04F FOG
SCOTTSBLUFF NE MOCLDY    63  54  72 SE16G31   29.96F
OMAHA NE       FAIR      56  48  74 SE5       30.12S
DES MOINES IA  FAIR      55  45  68 S5        30.14F
DAVENPORT IA     N/A     47  45  93 W3        30.15R
CHICAGO IL     FAIR      52  46  80 W5        30.11R
EAU CLAIRE WI  FAIR      49  47  93 SW5       30.08R
LA CROSSE WI   FAIR      56  50  80 S8        30.11R
$$

  *****  SOME NATIONAL WEATHER *****

CITY           SKY/WX    TMP DP  RH WIND       PRES   REMARKS
LA GUARDIA NY  PTSUNNY   63  60  90 E7        29.99F
RALEIGH NC     MOCLDY    64  61  90 CALM      30.05R
ATLANTA GA     MOCLDY    66  61  84 NW5       30.08R
NEW ORLEANS LA CLOUDY    77  75  93 CALM      30.01F
OKLAHOMA CITY  MOCLDY    65  62  90 SE5       30.05S
ALBUQUERQUE NM LGT RAIN  65  53  65 SE7       30.19S
SALT LAKE CITY FAIR      73  44  35 W7        29.86S
LOS ANGELES CA FAIR      64  60  87 S3        29.86S
BOISE ID       FAIR      63  50  62 S5        29.87F
SEATTLE WA     CLOUDY    54  49  83 S8        30.04R
$$

*** WEATHER ACROSS MANITOBA...SASKATCHEWAN AND ONTARIO ***
                ***ONTARIO***

CITY           SKY/WX    TMP DP  RH WIND       PRES   REMARKS
GERALDTON      CLOUDY    52  48  87 W9        29.90R
THUNDER BAY    CLOUDY    45  45 100 W5        29.97R
SIOUX LOOKOUT  MOCLDY    46  36  66 W6        29.92S
TORONTO        PTSUNNY   54  50  87 SW8       29.92S
BIG TROUT LK   LGT RAIN  52  52 100 S7        29.71F
PICKLE LAKE    MOCLDY    55  48  76 W12       29.83
DRYDEN         CLEAR     50  46  87 SW7       29.94R
KENORA         MOCLDY    54  46  76 S5        29.94S
$$
                *** MANITOBA***

CITY           SKY/WX    TMP DP  RH WIND       PRES   REMARKS
BRANDON        MOCLDY    48  45  87 E3        29.79F
DAUPHIN        CLEAR     64  43  45 SW20G30   29.70F
ISLAND LAKE    PTCLDY    59  45  58 W8        29.73F
PILOT MOUND      N/A     52  45  76 S14         N/A
THE PAS        MOCLDY    57  48  72 E8        29.68F
THOMPSON       PTCLDY    50  45  81 NE10      29.78R
WINNIPEG       MOCLDY    52  43  71 S12       29.86F
LYNN LAKE      CLEAR     50  45  81 E9        29.77S
CHURCHILL      MOSUNNY   41  37  87 NE12      29.91R
GILLAM         CLOUDY    45  43  93 N17       29.78R
$$
                ***SASKATCHEWAN***

CITY           SKY/WX    TMP DP  RH WIND       PRES   REMARKS
ESTEVAN        MOCLDY    61  43  51 S17G24    29.67F
KINDERSLEY     PTCLDY    55  52  88 S10       29.47F
LLOYDMINSTER   CLOUDY    55  54  94 NE7       29.45S
PRINCE ALBERT  PTCLDY    55  48  76 E9        29.53F
REGINA         PTCLDY    57  45  62 SE15G21   29.61F
YORKTON        CLEAR     57  46  67 S12       29.66S



USA.gov is the U.S. government's official web portal to all federal, state and local government web resources and services.